Theta_e
316 319 321 319 317 316 318 319 320 318 317 318 319 320 324 325 328 328 327 326 325 327 323 322 323 322 320 320 323 326 328 328 324 317 322 324 325 324 324 324 325 321 318 318
318 320 317 315 316 318 319 320 320 319 317 318 318 319 321 324 327 328 328 327 326 325 326 323 322 323 322 322 323 325 327 327 327 322 321 323 323 324 325 324 320 318 318 316
319 318 316 319 319 319 320 320 320 320 317 316 317 319 318 320 324 327 328 328 328 327 325 325 324 322 323 324 325 326 328 327 327 325 322 323 324 325 325 321 319 319 316 313
318 316 318 319 319 319 320 318 318 319 319 320 315 320 317 319 323 325 327 328 329 329 328 325 325 325 325 323 323 326 327 327 325 325 323 322 324 325 324 323 321 320 315 313
318 318 318 319 319 318 320 318 319 319 318 318 318 319 319 318 321 323 324 326 328 328 328 327 325 323 324 325 324 324 326 327 326 324 323 322 325 325 324 322 320 318 315 313
316 316 317 319 317 317 317 319 317 317 319 323 319 319 321 320 321 322 322 324 325 327 328 328 326 323 321 321 324 325 325 326 326 325 322 320 325 325 324 322 320 318 315 314
316 317 317 317 319 317 318 319 321 322 323 323 319 320 321 319 318 318 320 322 323 325 326 327 328 325 322 321 322 324 325 325 326 325 323 321 322 324 324 323 321 319 316 314
318 318 317 316 319 319 319 320 323 320 321 320 317 322 321 318 317 318 318 319 318 322 325 326 327 327 324 322 321 322 324 326 324 324 324 321 324 325 323 320 317 316 315 314
316 316 316 318 318 319 320 321 317 319 317 322 320 318 317 315 318 319 321 322 318 319 321 324 326 327 326 323 322 322 323 324 323 324 324 325 325 325 323 321 318 315 315 314
316 318 318 319 318 317 319 319 322 320 321 321 318 316 319 319 318 319 322 323 322 318 320 321 323 326 326 325 323 322 322 323 324 325 325 326 326 325 322 321 320 315 314 312
315 317 316 319 321 321 320 320 317 318 319 322 321 320 317 318 318 319 320 320 321 322 321 321 321 322 323 323 324 323 323 325 326 326 327 326 325 322 322 321 320 315 313 309
316 317 317 319 316 316 317 320 319 324 320 317 318 319 316 316 315 314 318 319 320 321 322 323 322 322 323 323 323 323 324 326 323 325 325 324 323 323 322 321 318 313 309 312
316 315 317 316 316 317 320 317 316 316 316 319 324 322 315 314 315 315 316 318 319 321 322 323 324 324 324 324 324 324 326 326 322 323 322 322 324 322 320 314 313 310 311 309
315 316 317 318 317 317 319 319 317 319 321 321 319 320 318 317 316 316 315 316 315 317 321 322 324 326 326 326 325 325 327 326 324 322 322 322 319 313 310 311 308 309 305 301
317 318 316 315 313 315 317 318 317 318 319 321 321 316 318 317 317 315 314 314 315 315 316 321 324 326 327 327 326 326 325 324 323 322 320 315 310 308 311 308 304 302 301 297
314 318 315 316 314 315 317 316 315 316 315 316 315 316 315 315 313 313 312 313 314 315 315 317 321 324 326 327 327 325 324 322 321 318 314 309 308 313 307 300 302 299 296 298
315 316 317 319 314 316 317 317 317 316 316 317 318 318 314 313 312 313 312 313 315 316 317 318 320 322 324 324 324 321 320 319 317 314 309 310 310 302 299 300 298 298 299 300
315 315 314 318 312 320 319 313 314 316 316 314 313 313 313 312 311 311 313 315 317 318 319 319 320 320 320 321 321 320 317 315 312 309 310 305 299 297 298 298 299 299 299 296
314 313 314 319 318 316 314 314 315 316 316 313 314 312 312 311 310 309 312 315 317 318 319 319 319 318 318 318 318 316 313 311 309 308 303 298 298 298 298 300 299 298 295 292
311 311 319 311 319 320 317 313 311 312 317 313 311 313 313 311 317 314 312 314 316 317 318 318 318 317 316 315 314 312 310 309 305 299 298 298 298 299 299 299 295 292 290 290
314 312 317 312 319 317 313 311 310 320 319 311 311 312 312 312 311 309 311 312 313 315 316 315 314 314 312 310 310 309 303 300 298 298 298 298 299 299 295 292 291 290 290 291
319 318 317 312 316 320 312 309 315 316 310 311 311 312 311 309 307 308 308 309 310 312 312 311 311 309 306 304 305 300 298 298 299 298 298 299 298 293 291 291 291 291 291 291
320 318 319 318 320 315 311 315 313 313 313 312 312 313 313 309 307 306 307 307 307 308 307 305 305 299 298 298 298 297 298 298 299 301 299 292 291 291 291 291 290 289 287 286
314 312 317 316 316 313 313 312 313 312 312 313 313 313 312 311 307 306 305 304 304 303 302 300 299 298 298 298 298 298 299 300 296 292 291 291 291 290 288 287 286 285 284 283
315 314 314 315 313 313 314 314 313 313 312 313 313 313 312 310 307 307 304 302 300 299 299 298 298 297 296 297 299 298 294 292 291 291 290 288 288 287 286 285 284 283 282 282
314 315 317 318 315 316 317 318 317 314 313 313 313 311 309 309 309 305 301 299 298 298 297 297 297 298 298 297 293 292 291 290 289 288 287 287 286 285 284 283 283 282 281 281
Wind_Speed
1 2 5 6 7 4 5 4 3 3 3 3 4 4 13 18 14 14 14 13 14 22 20 27 32 29 31 29 22 20 19 19 19 22 22 21 21 20 19 16 12 15 13 10
1 5 4 4 4 5 4 4 5 5 2 5 2 6 7 15 20 23 22 20 20 19 24 26 29 31 32 32 27 24 22 23 22 22 21 20 19 19 17 13 17 16 12 11
5 2 5 4 3 5 4 4 4 6 2 1 1 2 4 7 15 15 19 22 22 26 29 34 34 33 31 30 28 26 23 23 24 24 22 22 21 22 19 20 18 15 14 15
5 2 5 4 4 5 3 6 3 2 2 1 2 2 3 7 13 13 22 24 28 28 29 33 37 39 37 34 31 29 26 24 24 24 24 25 25 26 24 19 17 16 18 19
4 6 4 5 5 6 5 4 3 1 2 1 1 2 3 3 11 18 25 28 30 33 33 34 36 37 36 35 33 30 29 26 25 23 25 26 27 26 18 19 19 20 22 22
4 1 4 5 4 4 5 3 4 3 2 1 1 3 3 4 5 5 20 26 31 35 37 36 35 34 33 30 30 31 30 28 26 26 26 27 28 26 20 21 22 24 24 23
1 3 2 3 3 1 2 3 0 1 1 2 4 2 8 5 8 10 11 21 34 37 37 39 39 39 38 35 33 31 30 29 29 28 28 32 31 26 20 20 22 25 24 24
6 4 7 5 5 5 3 4 4 3 3 2 2 5 4 4 9 14 15 13 18 29 39 40 41 39 38 36 34 30 33 31 27 34 32 31 30 26 22 19 20 20 21 25
5 5 2 2 3 3 3 3 1 6 2 0 2 4 9 3 7 10 11 10 9 18 27 36 39 39 39 37 35 31 27 30 31 29 31 30 28 28 25 22 22 24 25 26
7 3 1 2 3 4 3 7 3 1 3 3 2 3 4 5 4 5 8 11 9 9 17 23 32 37 38 36 34 28 29 30 29 28 27 28 28 24 24 25 27 27 26 24
5 3 1 3 5 9 4 3 3 4 2 2 2 3 6 6 3 4 6 10 9 7 10 15 20 27 33 33 30 32 29 24 25 24 23 23 23 24 29 28 26 26 25 20
6 4 5 6 2 2 2 6 6 3 4 1 2 6 4 8 7 8 10 9 7 6 7 11 14 19 23 26 27 31 27 19 19 20 22 24 28 29 28 24 25 21 17 19
8 2 3 2 1 1 3 4 3 4 3 7 5 5 1 6 6 9 11 10 8 8 9 13 15 18 19 21 25 27 25 22 21 22 23 24 27 25 23 23 18 17 16 13
14 4 6 8 8 5 4 6 7 6 3 5 7 10 8 9 5 12 10 9 10 11 13 14 17 19 20 21 24 26 25 21 23 23 25 28 23 21 19 15 14 16 12 8
5 6 6 5 4 5 5 5 11 10 7 7 12 11 11 10 5 6 7 8 12 12 13 18 20 21 22 23 23 26 23 23 24 24 23 21 22 18 12 16 15 9 2 5
3 4 6 4 3 6 4 6 8 7 4 9 8 9 11 8 7 9 9 8 11 13 12 13 16 18 20 21 25 24 23 20 18 17 19 22 18 15 12 14 8 0 5 4
3 6 4 5 1 4 4 7 10 5 5 7 10 11 1 5 5 4 5 4 4 4 3 4 8 12 15 16 17 16 13 11 12 17 20 18 13 13 11 3 4 5 11 23
5 5 2 3 1 4 5 2 2 8 9 10 8 7 6 4 5 3 2 3 5 7 8 9 7 8 11 11 12 12 13 13 17 19 16 13 15 11 8 5 8 14 20 14
3 5 3 5 5 4 3 5 6 7 14 8 12 7 5 11 8 2 5 7 8 10 12 12 11 10 11 12 13 16 17 18 18 17 17 17 13 7 3 14 16 14 14 16
4 4 3 3 5 9 6 4 9 5 12 8 12 9 12 14 5 4 9 10 11 11 12 12 13 13 13 15 16 19 21 20 18 18 17 10 3 7 13 14 12 13 15 17
3 2 6 3 4 6 5 5 12 5 10 4 16 12 20 8 3 15 15 14 14 13 14 15 15 17 18 20 21 22 22 21 19 14 8 4 8 10 9 10 11 14 16 20
7 7 4 3 2 8 11 6 9 8 6 6 14 19 22 10 16 19 18 18 17 18 19 18 21 22 23 22 21 24 22 18 13 8 2 8 9 8 10 12 15 18 22 25
4 5 5 9 7 4 28 11 25 9 7 9 16 22 24 22 22 22 22 21 21 22 23 25 27 30 27 24 20 21 15 10 5 4 6 4 7 10 13 15 18 20 23 25
4 4 3 2 5 6 13 23 12 16 17 13 18 27 27 24 25 25 25 25 26 27 29 29 28 28 26 20 15 11 7 2 2 3 4 7 9 11 14 16 18 19 20 22
3 9 6 3 4 4 13 21 20 18 16 15 18 25 27 26 27 27 28 28 30 31 29 27 25 24 20 14 9 5 4 5 3 4 6 9 11 14 16 17 17 18 18 19
6 6 5 7 13 9 9 23 24 24 23 21 24 26 25 26 29 30 30 32 33 31 28 25 20 16 13 9 9 8 4 3 4 6 9 11 13 15 16 17 17 17 17 18
Wind_Direction
116 174 215 212 203 182 177 180 235 238 241 247 233 211 203 192 198 204 210 201 199 199 189 191 193 199 200 198 205 212 212 213 205 199 199 203 210 213 214 209 197 199 200 209
82 232 212 183 163 151 186 229 263 306 304 208 193 240 214 202 212 204 201 211 213 206 204 203 204 203 205 210 219 224 227 222 212 211 211 216 221 221 221 201 198 201 207 205
186 225 156 156 168 180 207 206 221 267 330 16 252 242 194 222 235 225 223 218 218 217 210 212 212 216 220 222 224 224 223 218 218 218 220 225 224 220 209 202 204 210 210 208
228 226 186 179 211 182 254 220 204 221 205 269 303 281 238 207 223 235 231 220 221 222 225 220 222 221 224 226 228 229 229 226 222 221 227 229 230 227 215 215 216 220 213 212
228 172 180 202 214 181 229 157 176 151 123 189 221 265 276 165 224 228 227 224 225 225 226 228 224 225 227 227 228 230 231 231 231 232 232 232 233 234 226 217 221 222 215 215
209 196 171 204 201 195 134 121 57 69 114 233 251 239 276 239 231 251 233 225 225 229 227 228 231 231 230 229 228 227 229 234 238 238 237 240 238 239 222 218 225 222 217 219
77 221 220 180 152 152 140 92 211 131 157 202 130 161 252 276 258 252 262 227 231 230 229 228 226 226 229 232 232 229 232 238 243 242 243 238 241 239 230 231 230 222 223 226
180 251 182 183 199 193 172 172 166 190 191 189 207 219 238 226 294 289 279 276 250 237 231 230 228 226 226 227 230 233 234 236 246 245 242 242 241 239 224 222 227 227 233 232
154 237 188 217 140 160 166 195 108 103 24 187 249 285 277 252 290 302 300 304 262 234 230 230 230 230 231 228 230 228 235 239 251 247 242 241 242 235 215 220 224 229 230 229
194 143 171 154 127 48 181 143 136 67 175 240 235 265 246 305 325 326 310 308 316 250 232 230 230 229 234 233 231 231 238 241 248 252 249 244 238 229 221 228 226 226 227 224
136 129 194 122 221 179 147 181 75 120 161 215 267 246 217 244 279 297 280 286 287 273 246 239 234 231 230 231 226 223 231 238 243 245 241 233 229 222 226 233 225 224 222 208
192 144 184 192 220 230 202 184 158 153 192 196 251 254 236 251 262 274 276 276 271 256 242 247 243 238 235 232 222 219 225 232 224 226 220 220 220 225 232 227 218 218 203 285
176 187 189 258 16 3 212 190 144 105 97 194 212 255 216 274 296 290 274 280 276 265 244 230 233 237 239 235 225 222 227 225 220 220 222 229 231 231 225 212 195 222 244 264
147 142 167 219 224 161 191 196 182 158 154 186 220 251 263 273 268 288 279 277 290 268 252 235 224 225 230 232 226 225 236 224 228 228 226 228 219 201 191 219 205 227 227 245
144 186 180 232 236 190 209 182 176 197 212 199 243 218 247 251 231 265 292 288 289 282 262 241 229 223 224 223 219 220 231 229 234 226 218 207 193 178 245 214 216 217 252 231
180 201 161 205 124 204 223 223 188 216 218 244 254 249 232 241 249 257 274 295 293 293 285 254 238 229 223 216 216 220 220 220 215 219 200 187 179 227 195 190 234 242 221 267
184 139 133 221 191 143 304 211 197 195 206 205 229 247 208 239 224 245 283 298 292 291 284 224 223 216 212 211 209 206 206 201 189 190 185 192 197 178 180 222 163 202 289 299
161 132 102 162 127 206 245 119 165 221 247 221 255 245 221 226 169 166 167 137 114 109 109 117 134 172 189 193 190 189 185 180 176 176 183 167 160 165 165 184 267 294 300 299
194 134 130 157 194 304 242 197 175 180 261 214 232 233 189 152 141 128 138 140 127 118 114 115 122 136 156 169 172 172 167 167 172 170 160 162 168 172 277 303 307 297 298 298
92 62 138 145 182 213 218 208 157 141 278 211 195 188 160 155 174 170 160 140 133 128 123 129 133 137 147 149 156 159 156 160 156 154 158 160 233 284 298 308 297 302 303 304
116 55 184 160 217 282 248 163 149 149 259 232 213 184 164 184 173 157 156 147 138 131 130 132 132 133 136 139 149 149 145 145 145 152 166 197 289 293 290 283 292 297 299 299
168 157 177 110 152 249 162 118 179 206 186 224 203 190 175 175 149 150 149 143 138 136 133 134 133 129 130 139 150 142 147 149 157 162 196 291 288 283 287 295 297 299 301 302
237 199 184 190 205 208 184 208 210 198 203 210 201 188 184 165 161 156 150 147 145 143 140 141 140 135 138 145 153 154 144 148 166 273 278 264 274 286 294 297 301 304 307 308
220 197 191 137 213 224 227 219 214 226 236 233 211 192 186 175 167 162 157 153 151 150 149 149 147 145 142 146 143 145 148 235 239 227 256 274 286 296 302 309 313 318 322 326
178 148 161 264 282 286 261 247 244 234 220 212 193 193 190 181 170 168 160 156 154 153 152 152 151 146 141 146 155 148 151 175 223 266 286 299 308 313 317 322 328 333 337 341
193 176 160 214 211 197 205 262 263 236 216 202 194 182 183 183 173 167 160 159 158 156 154 151 147 148 146 148 147 157 175 222 276 299 310 316 321 324 327 331 333 336 342 345